Ann Arbor, MI

8:55 AM EST on December 09, 2016 (GMT -0500)
Ann Arbor Municipal

Weather History for KARB - June, 2013

Change the Weather History Date:

Thursday, June 13, 2013

  Actual Average Record
Temperature  
Mean Temperature 70 °F -  
Max Temperature 78 °F 75 °F 90 °F (2007)
Min Temperature 62 °F 52 °F 41 °F (2016)
Cooling Degree Days 5    
Growing Degree Days 20 (Base 50)    
Moisture  
Dew Point 60 °F    
Average Humidity 71    
Maximum Humidity 100    
Minimum Humidity 45    
Precipitation  
Precipitation 1.77 in - - ()
Sea Level Pressure  
Sea Level Pressure 29.68 in    
Wind  
Wind Speed 11 mph (NNE)    
Max Wind Speed 33 mph    
Max Gust Speed 43 mph    
Visibility 6 miles    
Events Fog , Rain , Thunderstorm    
Averages and records for this station are not official NWS values.
T = Trace of Precipitation, MM = Missing Value Source: NWS Daily Summary

Daily Weather History Graph

Daily Weather History Graph

Search for Another Location

Airport or City:

Trip Planner

Search our weather history database for the weather conditions in past years. The results will help you decide how hot, cold, wet, or windy it might be!

Date:

Astronomy

Jun. 13, 2013 Rise Set
Actual Time 5:58 AM EDT 9:12 PM EDT
Civil Twilight 5:23 AM EDT 9:46 PM EDT
Nautical Twilight 4:38 AM EDT 10:31 PM EDT
Astronomical Twilight 3:44 AM EDT 11:25 PM EDT
Moon 10:38 AM EDT (6/13) No Moon Set
Length of Visible Light 16h 23m
Length of Day
15h 14m
Waxing Crescent, 21% of the Moon is Illuminated
Jun 13
Waxing Crescent
Jun 16
First Quarter
Jun 23
Full
Jun 30
Last Quarter
Jul 8
New

Hourly Weather History & Observations

Time (EDT) Temp. Dew Point Humidity Pressure Visibility Wind Dir Wind Speed Gust Speed Precip Events Conditions
12:07 AM 68.0 °F 64.4 °F 88% 29.65 in 2.0 mi ENE 10.4 mph - 0.03 in Rain , Thunderstorm Light Rain
12:17 AM 68.0 °F 66.2 °F 94% 29.65 in 1.8 mi ENE 9.2 mph 18.4 mph 0.05 in Rain , Thunderstorm Thunderstorms and Rain
12:41 AM 66.2 °F 66.2 °F 100% 29.61 in 2.0 mi NE 10.4 mph 16.1 mph 0.12 in Rain , Thunderstorm Thunderstorms and Rain
12:53 AM 66.9 °F 64.9 °F 93% 29.67 in 2.5 mi WNW 16.1 mph 20.7 mph 0.15 in Rain , Thunderstorm Light Thunderstorms and Rain
1:00 AM 66.2 °F 64.4 °F 94% 29.72 in 1.2 mi West 33.4 mph 42.6 mph 0.22 in Rain , Thunderstorm Heavy Thunderstorms and Rain
1:04 AM 66.2 °F 64.4 °F 94% 29.67 in 0.5 mi North 17.3 mph 42.6 mph 0.59 in Fog , Rain , Thunderstorm Heavy Thunderstorms and Rain
1:15 AM 66.2 °F 64.4 °F 94% 29.63 in 1.0 mi North 16.1 mph 25.3 mph 0.90 in Rain , Thunderstorm Heavy Thunderstorms and Rain
1:19 AM 66.2 °F 64.4 °F 94% 29.63 in 2.0 mi ENE 9.2 mph 25.3 mph 0.91 in Rain , Thunderstorm Thunderstorms and Rain
1:22 AM 66.2 °F 64.4 °F 94% 29.62 in 4.0 mi NE 15.0 mph 23.0 mph 0.92 in Rain , Thunderstorm Thunderstorms and Rain
1:42 AM 66.2 °F - N/A% 29.62 in 4.0 mi East 12.7 mph - 0.98 in Rain Rain
1:53 AM 66.0 °F - N/A% 29.61 in 3.0 mi ENE 3.5 mph - 1.02 in Rain Rain
2:10 AM 64.4 °F - N/A% 29.60 in 3.0 mi East 6.9 mph - 0.05 in Rain , Thunderstorm Light Rain
2:25 AM 64.4 °F - N/A% 29.56 in 3.0 mi East 12.7 mph - 0.07 in Rain Light Rain
2:50 AM 64.4 °F - N/A% 29.54 in 4.0 mi NE 10.4 mph 21.9 mph 0.10 in Rain Light Rain
2:53 AM 64.9 °F - N/A% 29.53 in 4.0 mi NNE 10.4 mph 19.6 mph 0.10 in Rain Light Rain
3:04 AM 64.4 °F - N/A% 29.56 in 6.0 mi NE 9.2 mph - 0.00 in Rain Light Rain
3:26 AM 64.4 °F - N/A% 29.57 in 1.8 mi NE 6.9 mph - 0.08 in Rain Heavy Rain
3:38 AM 64.4 °F - N/A% 29.57 in 1.2 mi NE 6.9 mph - 0.22 in Rain Heavy Rain
3:45 AM 64.4 °F - N/A% 29.58 in 1.8 mi NE 4.6 mph - 0.27 in Rain Heavy Rain
3:53 AM 64.9 °F - N/A% 29.56 in 2.5 mi NNE 4.6 mph - 0.30 in Rain Rain
4:05 AM 64.4 °F - N/A% 29.57 in 3.0 mi NNE 6.9 mph - 0.03 in Rain Light Rain
4:51 AM 64.4 °F - N/A% 29.58 in 4.0 mi NNE 6.9 mph - 0.08 in Rain Light Rain
4:53 AM 64.9 °F - N/A% 29.57 in 4.0 mi NNE 9.2 mph - 0.09 in Rain Light Rain
5:20 AM 64.4 °F - N/A% 29.59 in 6.0 mi NNE 11.5 mph - 0.06 in Rain Light Rain
5:41 AM 64.4 °F - N/A% 29.62 in 7.0 mi North 8.1 mph - 0.07 in Rain Light Rain
5:53 AM 64.9 °F - N/A% 29.62 in 7.0 mi North 6.9 mph - 0.07 in   Overcast
5:59 AM 64.4 °F - N/A% 29.64 in 7.0 mi North 6.9 mph - N/A   Overcast
6:04 AM 64.4 °F - N/A% 29.64 in 4.0 mi NNW 5.8 mph - 0.00 in Rain Light Rain
6:15 AM 64.4 °F - N/A% 29.65 in 2.5 mi North 13.8 mph 21.9 mph 0.01 in Rain Light Rain
6:23 AM 64.4 °F - N/A% 29.65 in 6.0 mi North 16.1 mph 24.2 mph 0.01 in Rain Light Rain
6:35 AM 64.4 °F - N/A% 29.66 in 10.0 mi NNE 10.4 mph - 0.02 in Rain Light Rain
6:48 AM 62.6 °F - N/A% 29.66 in 6.0 mi North 10.4 mph - 0.03 in Rain Light Rain
6:53 AM 63.0 °F - N/A% 29.66 in 7.0 mi North 10.4 mph - 0.03 in Rain Light Rain
7:53 AM 62.1 °F - N/A% 29.68 in 10.0 mi North 9.2 mph - 0.01 in   Mostly Cloudy
8:53 AM 63.0 °F - N/A% 29.70 in 10.0 mi NNW 10.4 mph 19.6 mph N/A   Overcast
9:53 AM 66.9 °F - N/A% 29.72 in 10.0 mi North 9.2 mph - N/A   Mostly Cloudy
10:53 AM 71.1 °F 59.0 °F 66% 29.72 in 10.0 mi North 12.7 mph 19.6 mph N/A   Clear
11:53 AM 73.9 °F 55.9 °F 53% 29.75 in 10.0 mi NNW 13.8 mph 21.9 mph N/A   Clear
12:53 PM 75.0 °F 54.0 °F 48% 29.76 in 10.0 mi NNW 18.4 mph 24.2 mph N/A   Partly Cloudy
1:53 PM 75.9 °F 54.0 °F 46% 29.77 in 10.0 mi NNW 13.8 mph 21.9 mph N/A   Partly Cloudy
2:53 PM 78.1 °F 55.9 °F 46% 29.79 in 10.0 mi North 15.0 mph 21.9 mph N/A   Clear
3:53 PM 78.1 °F 55.0 °F 45% 29.80 in 10.0 mi North 16.1 mph 26.5 mph N/A   Partly Cloudy
4:53 PM 77.0 °F 54.0 °F 45% 29.81 in 10.0 mi NNE 16.1 mph 21.9 mph N/A   Clear
5:53 PM 77.0 °F 55.0 °F 47% 29.82 in 10.0 mi North 10.4 mph - N/A   Partly Cloudy
6:53 PM 73.0 °F 54.0 °F 51% 29.83 in 10.0 mi North 10.4 mph - N/A   Scattered Clouds
7:53 PM 72.0 °F 57.0 °F 59% 29.85 in 10.0 mi NNW 8.1 mph - N/A   Mostly Cloudy
8:53 PM 71.1 °F 57.9 °F 63% 29.87 in 10.0 mi NNW 6.9 mph - N/A   Mostly Cloudy
9:53 PM 68.0 °F 59.0 °F 73% 29.88 in 10.0 mi North 5.8 mph - N/A   Partly Cloudy
10:53 PM 66.9 °F 57.9 °F 73% 29.90 in 10.0 mi North 5.8 mph - N/A   Partly Cloudy
11:53 PM 64.9 °F 59.0 °F 81% 29.93 in 10.0 mi NNW 8.1 mph - 0.00 in   Overcast